Location: Cubitt Town
(51.4833°N, 0.0000°E)
Time: 23:33:09
(UTC+00:00)

Cosmos 1825 Rocket - Pass Details

Date: 15 May 2026
Orbit: 598 x 622 km, 82.5° (Epoch: 11 June)

Event Time Altitude Azimuth Distance (km) Brightness Sun altitude
Rises 22:04:40 0° 345° (NNW) 2,874 8.6 -15.4°
Reaches altitude 10° 22:06:55 10° 341° (NNW) 1,969 7.5 -15.5°
Maximum altitude 22:11:09 52° 265° (W) 765 4.1 -15.8°
Enters shadow 22:13:53 21° 197° (SSW) 1,404 5.0 -16.0°
